DELTA 1 DEB, 10716

Orbit data source: Space-Track

DELTA 1 DEB, 10716 is space debris in SSO originally from a launch on Thu, 29 Jul 1976 UTC launched from the Air Force Western Test Range (AFWTR). Debris objects in space refer to the collection of defunct objects orbiting the Earth. Examples of debris include non-operational satellites, rocket bodies, and fragments generated from explosions, collisions, or faulty payload assembly.

Loading next visibility...
Identifier
10716, 1976-077AM
Orbit
SSO
Country
Flag of USUS
Related business
Manufacturer
Unknown
Mission
Spacecraft
Bus & Motor
Unknown
Mass
Unknown
Launch date (UTC)
1976-07-29 (49 years ago)
Launch vehicle
Unknown
Launch site
Air Force Western Test Range (AFWTR)
Object type
Payload
Rocket body
Debris
Shape & HBR
Unknown
Radar Cross Section
Small (<0.1 m²)

Expand to show TLE details & history
Last TLE update: 18 hours ago

TLE from 18 hours ago
0 DELTA 1 DEB
1 10716U 76077AM  25257.96953109  .00001934  00000-0  83538-2 0  9991
2 10716 102.7433  60.2597 0122341 273.6205 212.6832 12.80992319241537
Epoch: 2025-09-14T23:16Z
TLE epoch observation values (Epoch: 2025-09-14T23:16:07.486Z)
Latitude
52.61008°
Longitude
-85.82792°
Altitude
1,425.589 km
Speed
7.116 km/s
True Right ascension
17h 09m 32s
True Declination
52° 27' 30"
Sunlit
Object was in daylight at epoch
Visualization orbit readout
Latitude
Unknown
Longitude
Unknown
Altitude
Unknown
Speed
Unknown
Apparent Right ascension
Unknown
Apparent Declination
Unknown
Sunlit
N/A
Visualization observer readout
Local Sidereal Time
10:22:13
Azimuth
Unknown
Elevation
Unknown
Doppler factor
Unknown
Orbital elements
Apogee altitude
1,429.414 km
Perigee altitude
1,240.686 km
Semi-major axis
7,713.187 km
Eccentricity
0.01223
Inclination
102.7433°
RAAN
60.2597°
Arg. of periapsis
273.6205°
True anomaly
211.93582°
Mean anomaly
212.6832°
Eccentric anomaly
212.30855°
Mean motion
3.204 °/min
Orbital period
112.36 mins
BSTAR
0.0083538
Loading maneuver chart data...
Computing Atmospheric mass density...
Loading historical data...
Loading historical data...
Loading historical data...
Loading historical data...
Loading historical data...
Loading historical data...
Loading historical data...

Documentation

Showing up to 5 results
|